Weather History for KLOU - December, 2012

Change the Weather History Date:

Sunday, December 16, 2012

  Actual Average Record
Temperature  
Mean Temperature 59 °F 37 °F  
Max Temperature 63 °F 45 °F 70 °F (1984)
Min Temperature 55 °F 29 °F -4 °F (1989)
Degree Days  
Heating Degree Days 6 28  
Month to date heating degree days 246 421  
Since 1 July heating degree days 1181 1225  
Cooling Degree Days 0 0  
Month to date cooling degree days 3 0  
Year to date cooling degree days 1854 1444  
Growing Degree Days 9 (Base 50)    
Moisture  
Dew Point 53 °F    
Average Humidity 77    
Maximum Humidity 93    
Minimum Humidity 60    
Precipitation  
Precipitation 0.16 in 0.11 in 2.03 in (2000)
Month to date precipitation 4.47 2.08  
Year to date precipitation 43.01 43.61  
Sea Level Pressure  
Sea Level Pressure 29.75 in    
Wind  
Wind Speed 6 mph (SSW)    
Max Wind Speed 18 mph    
Max Gust Speed 29 mph    
Visibility 10 miles    
Events Rain , Thunderstorm    
T = Trace of Precipitation, MM = Missing Value Source: NWS Daily Summary

Daily Weather History Graph

Daily Weather History Graph

Search for Another Location

Airport or City:

Trip Planner

Search our weather history database for the weather conditions in past years. The results will help you decide how hot, cold, wet, or windy it might be!

Date:

Astronomy

Dec. 16, 2012 Rise Set
Actual Time 7:53 AM EST 5:24 PM EST
Civil Twilight 7:23 AM EST 5:53 PM EST
Nautical Twilight 6:50 AM EST 6:26 PM EST
Astronomical Twilight 6:18 AM EST 6:59 PM EST
Moon 10:28 AM EST (12/16) 9:34 PM EST (12/16)
Length of Visible Light 10h 30m
Length of Day
9h 30m
Waxing Crescent, 16% of the Moon is Illuminated
Dec 16
Waxing Crescent
Dec 20
First Quarter
Dec 28
Full
Jan 4
Last Quarter
Jan 11
New

Hourly Weather History & Observations

Time (EST) Temp. Dew Point Humidity Pressure Visibility Wind Dir Wind Speed Gust Speed Precip Events Conditions
12:33 AM 59.0 °F 51.8 °F 77% 29.82 in 10.0 mi SSW 8.1 mph - N/A   Overcast
12:53 AM 59.0 °F 52.0 °F 78% 29.82 in 10.0 mi South 6.9 mph - N/A   Overcast
1:53 AM 59.0 °F 53.1 °F 81% 29.80 in 10.0 mi SSW 9.2 mph - N/A   Overcast
2:53 AM 57.9 °F 53.1 °F 84% 29.79 in 10.0 mi South 6.9 mph - N/A   Overcast
3:24 AM 57.2 °F 53.6 °F 88% 29.79 in 10.0 mi South 6.9 mph - N/A   Overcast
3:53 AM 57.9 °F 54.0 °F 87% 29.78 in 10.0 mi South 6.9 mph - N/A   Overcast
4:53 AM 57.9 °F 54.0 °F 87% 29.77 in 10.0 mi South 6.9 mph - N/A   Overcast
5:53 AM 57.9 °F 55.0 °F 90% 29.76 in 10.0 mi South 8.1 mph - N/A   Overcast
6:53 AM 59.0 °F 55.0 °F 87% 29.77 in 10.0 mi South 6.9 mph - N/A   Overcast
7:09 AM 59.0 °F 55.4 °F 88% 29.77 in 10.0 mi South 8.1 mph - N/A   Overcast
7:25 AM 59.0 °F 55.4 °F 88% 29.77 in 10.0 mi South 5.8 mph - N/A   Mostly Cloudy
7:39 AM 59.0 °F 55.4 °F 88% 29.78 in 10.0 mi South 4.6 mph - N/A   Mostly Cloudy
7:53 AM 59.0 °F 55.0 °F 87% 29.77 in 10.0 mi South 5.8 mph - N/A   Overcast
8:30 AM 59.0 °F 55.4 °F 88% 29.77 in 10.0 mi South 4.6 mph - N/A   Scattered Clouds
8:53 AM 59.0 °F 55.0 °F 87% 29.77 in 8.0 mi South 5.8 mph - N/A   Mostly Cloudy
9:53 AM 60.1 °F 55.0 °F 83% 29.78 in 10.0 mi South 5.8 mph - N/A   Overcast
10:53 AM 61.0 °F 55.9 °F 83% 29.78 in 10.0 mi SSW 12.7 mph 17.3 mph N/A   Mostly Cloudy
11:06 AM 60.8 °F 55.4 °F 82% 29.77 in 10.0 mi SSW 9.2 mph - N/A   Mostly Cloudy
11:17 AM 60.8 °F 55.4 °F 82% 29.77 in 10.0 mi SW 9.2 mph - N/A   Mostly Cloudy
11:53 AM 62.1 °F 54.0 °F 75% 29.75 in 10.0 mi SSW 15.0 mph 19.6 mph N/A   Mostly Cloudy
12:05 PM 62.6 °F 53.6 °F 72% 29.75 in 10.0 mi SW 8.1 mph - N/A   Scattered Clouds
12:36 PM 62.6 °F 53.6 °F 72% 29.74 in 10.0 mi SW 11.5 mph 17.3 mph N/A   Overcast
12:53 PM 63.0 °F 53.1 °F 70% 29.73 in 10.0 mi SW 10.4 mph 17.3 mph N/A   Mostly Cloudy
1:06 PM 62.6 °F 51.8 °F 68% 29.72 in 10.0 mi SSW 10.4 mph 18.4 mph N/A   Mostly Cloudy
1:53 PM 63.0 °F 48.9 °F 60% 29.71 in 10.0 mi SW 10.4 mph 20.7 mph N/A   Partly Cloudy
2:53 PM 62.1 °F 50.0 °F 65% 29.70 in 10.0 mi SW 9.2 mph - N/A   Clear
3:53 PM 62.1 °F 48.9 °F 62% 29.70 in 10.0 mi SW 6.9 mph - N/A   Clear
4:53 PM 60.1 °F 48.9 °F 67% 29.71 in 10.0 mi SW 3.5 mph - N/A   Clear
5:53 PM 59.0 °F 50.0 °F 72% 29.69 in 10.0 mi Calm Calm - N/A   Clear
6:53 PM 57.9 °F 50.0 °F 75% 29.71 in 10.0 mi Calm Calm - N/A   Clear
7:17 PM 55.4 °F 50.0 °F 82% 29.71 in 10.0 mi Calm Calm - N/A   Mostly Cloudy
7:46 PM 55.4 °F 50.0 °F 82% 29.72 in 10.0 mi Calm Calm - N/A   Scattered Clouds
7:53 PM 55.0 °F 50.0 °F 83% 29.72 in 10.0 mi Calm Calm - N/A   Mostly Cloudy
8:46 PM 57.2 °F 51.8 °F 82% 29.72 in 10.0 mi Calm Calm - N/A   Mostly Cloudy
8:53 PM 57.9 °F 52.0 °F 81% 29.72 in 10.0 mi Calm Calm - N/A   Mostly Cloudy
9:49 PM 57.2 °F 53.6 °F 88% 29.74 in 10.0 mi Calm Calm - N/A   Overcast
9:53 PM 57.9 °F 54.0 °F 87% 29.74 in 10.0 mi SSW 3.5 mph - N/A   Overcast
10:53 PM 57.9 °F 54.0 °F 87% 29.75 in 10.0 mi SW 4.6 mph - N/A   Mostly Cloudy
11:33 PM 57.2 °F 55.4 °F 94% 29.75 in 4.0 mi WSW 11.5 mph - 0.12 in Rain Heavy Rain
11:36 PM 57.2 °F 55.4 °F 94% 29.75 in 5.0 mi SW 9.2 mph - 0.12 in Rain , Thunderstorm Light Thunderstorms and Rain
11:50 PM 57.2 °F 55.4 °F 94% 29.75 in 7.0 mi SW 9.2 mph - 0.13 in Rain , Thunderstorm Rain
11:53 PM 57.9 °F 55.0 °F 90% 29.75 in 6.0 mi SW 9.2 mph - 0.14 in Rain , Thunderstorm Light Rain